Weather in Pudino

Russia / Tomsk District     57°34′15″N   79°26′33″E
temp.,
°C
wind,
m/s
gust,
m/s
humid.,
%
clouds,
%
prec.,
mm/h
press.,
hPa
HPBL,
m
10 may, mon
mon1001:00+4ene28764 0.0 1025160
04:00+3ene23815 0.0 102659
07:00+4ene25775 0.0 1027140
10:00+10ne355369 0.0 1027901
13:00+13ne454395 0.0 10261626
16:00+15ne453658 0.0 10252062
19:00+12nne574955 0.0 10241004
22:00+7ne49648 0.0 1025470
11 may, tue
tue1101:00+4nne397913 0.0 1025262
04:00+4nne3876100 0.0 1024300
07:00+5nne3877100 0.0 1025310
10:00+10nne46575 0.0 1025673
13:00+14nne444036 0.0 10241923
16:00+15nne453584 0.0 10232279
19:00+15nne343633 0.0 10232080
22:00+10ne226060 0.0 102438
12 may, wed
wed1201:00+6n11720 0.0 102410
04:00+5se11790 0.0 102410
07:00+6sw12729 0.0 102467
10:00+12wsw2348100 0.0 1023720
13:00+15wsw2337100 0.0 10211220
16:00+18w2335100 0.0 10192051
19:00+13se1262100 0.1 1019174
22:00+10nnw478198 0.1 1020374
13 may, thu
thu1301:00+8n4893100 0.9 1020500
04:00+7n3890100 0.3 1020527
07:00+7nnw369176 0.3 1021390
10:00+9n347377 0.0 1021792
13:00+12n235696 0.1 10201346
16:00+16nnw2437100 0.0 10192096
19:00+15nw3435100 0.0 10181952
22:00+10w224987 0.0 101714
14 may, fri
fri1401:00+8nw1181100 0.9 101735
04:00+8nw41191100 0.5 1016804
07:00+7nnw61078100 0.7 10191107
10:00+7nnw695399 0.0 10211085
13:00+11nnw693031 0.0 10221624
16:00+13nnw592521 0.0 10221965
19:00+12nw4628100 0.0 10211782
22:00+9w1145100 0.0 102111